User: anonymous   Login
Location: Wildcat Hills Observatory
(41.6350°N, 103.6812°W)
Time: 17:28:33
(UTC-06:00)
Language:

Cosmos 1634 Rocket - Orbit

View from above orbital plane
View from above orbital plane
View from above satellite
View from above satellite

Ground track
Ground track

The orbit data is extracted from the following two-line orbital elements,

1 15598U 85022B   18142.63239552 +.00000016 +00000-0 +10642-5 0  9991
2 15598 082.9392 214.7871 0021009 237.7292 229.7071 13.76571711666923
Epoch (UTC): 22 May 2018 15:10:38
Eccentricity: 0.0021009
inclination: 82.9392°
perigee height: 960 km
apogee height: 991 km
right ascension of ascending node: 214.7871°
argument of perigee: 237.7292°
revolutions per day: 13.76571711
mean anomaly at epoch: 229.7071°
orbit number at epoch: 66692

The dashed part of the orbit path shows where the satellite is in the earth's shadow,  

DLR